JAL901 RJTT-ROAH

Flight info

Callsign JAL901
Flight time 2h 24m
Altitude 34000
Route LAXAS Y56 TOHME Y54 KOHWA Y12 AYANO Y128 LAXEL Y52 TONAR Y525 IHEYA
Aircraft A343/H-SDE2E3FGHIJ4J5M1RWXY/LB1D1

Departure

Time 2026-05-05 17:45
Airport Tokyo Haneda International Airport (RJTT)

Arrival

Time 2026-05-05 20:09
Airport Naha International Airport (ROAH)
Time Latitude Longitude Altitude Speed Heading
2026-05-05 16:54 35.54698 139.78355 -26 ft 0 kts 57°
2026-05-05 17:39 35.54693 139.78345 28 ft 3 kts 57°
2026-05-05 17:39 35.54681 139.78323 27 ft 4 kts 50°
2026-05-05 17:40 35.54668 139.78306 28 ft 0 kts 39°
2026-05-05 17:40 35.54648 139.78290 27 ft 4 kts 24°
2026-05-05 17:40 35.54623 139.78281 28 ft 4 kts
2026-05-05 17:40 35.54597 139.78284 28 ft 4 kts 336°
2026-05-05 17:41 35.54575 139.78298 27 ft 4 kts 329°
2026-05-05 17:41 35.54555 139.78313 27 ft 0 kts 330°
2026-05-05 17:43 35.54558 139.78311 27 ft 2 kts 328°
2026-05-05 17:44 35.54576 139.78293 28 ft 4 kts 315°
2026-05-05 17:44 35.54593 139.78250 27 ft 7 kts 277°
2026-05-05 17:44 35.54616 139.78116 27 ft 33 kts 289°
2026-05-05 17:44 35.54826 139.77805 29 ft 71 kts 321°
2026-05-05 17:45 35.55422 139.77329 29 ft 132 kts 330°
2026-05-05 17:45 35.56330 139.76641 260 ft 164 kts 326°
2026-05-05 17:45 35.57042 139.75432 521 ft 183 kts 271°
2026-05-05 17:45 35.56635 139.73979 1011 ft 197 kts 219°
2026-05-05 17:46 35.55375 139.73328 1430 ft 218 kts 181°
2026-05-05 17:46 35.53932 139.73924 2053 ft 234 kts 144°
2026-05-05 17:46 35.53013 139.75630 2740 ft 251 kts 113°
2026-05-05 17:46 35.52472 139.77698 3453 ft 253 kts 124°
2026-05-05 17:47 35.51253 139.79148 4170 ft 245 kts 159°
2026-05-05 17:47 35.49591 139.79414 4815 ft 245 kts 194°
2026-05-05 17:47 35.48038 139.78531 5456 ft 250 kts 211°
2026-05-05 17:47 35.46458 139.77562 6117 ft 258 kts 201°
2026-05-05 17:48 35.44733 139.76924 6753 ft 266 kts 192°
2026-05-05 17:48 35.42890 139.76559 7474 ft 269 kts 187°
2026-05-05 17:48 35.41012 139.76375 8211 ft 271 kts 184°
2026-05-05 17:48 35.39116 139.76279 8934 ft 273 kts 182°
2026-05-05 17:49 35.37206 139.76231 9624 ft 276 kts 181°
2026-05-05 17:49 35.35295 139.76299 10271 ft 282 kts 174°
2026-05-05 17:49 35.33318 139.76812 10555 ft 299 kts 166°
2026-05-05 17:49 35.31255 139.77534 10798 ft 316 kts 165°
2026-05-05 17:50 35.29096 139.78313 11034 ft 332 kts 165°
2026-05-05 17:50 35.26825 139.79126 11264 ft 347 kts 165°
2026-05-05 17:50 35.24442 139.79875 11573 ft 357 kts 171°
2026-05-05 17:50 35.21977 139.79965 12068 ft 362 kts 187°
2026-05-05 17:51 35.19563 139.79101 12630 ft 366 kts 205°
2026-05-05 17:51 35.17462 139.77313 13234 ft 371 kts 221°
2026-05-05 17:51 35.15656 139.75029 13828 ft 375 kts 225°
2026-05-05 17:51 35.13894 139.72654 14437 ft 377 kts 225°
2026-05-05 17:52 35.12140 139.70262 14993 ft 380 kts 227°
2026-05-05 17:52 35.10640 139.67577 15520 ft 387 kts 241°
2026-05-05 17:52 35.09761 139.64437 16083 ft 393 kts 254°
2026-05-05 17:52 35.09207 139.61186 16659 ft 396 kts 256°
2026-05-05 17:53 35.08685 139.57874 17216 ft 397 kts 257°
2026-05-05 17:53 35.08154 139.54542 17789 ft 399 kts 257°
2026-05-05 17:53 35.07614 139.51207 18363 ft 401 kts 257°
2026-05-05 17:53 35.07068 139.47855 18888 ft 402 kts 257°
2026-05-05 17:54 35.06524 139.44547 19480 ft 401 kts 257°
2026-05-05 17:54 35.05973 139.41220 20130 ft 398 kts 257°
2026-05-05 17:54 35.05425 139.37920 20744 ft 396 kts 257°
2026-05-05 17:54 35.04877 139.34629 21330 ft 394 kts 257°
2026-05-05 17:55 35.04329 139.31350 21909 ft 393 kts 257°
2026-05-05 17:55 35.03782 139.28078 22473 ft 392 kts 257°
2026-05-05 17:55 35.03244 139.24861 23011 ft 391 kts 257°
2026-05-05 17:55 35.02700 139.21607 23548 ft 391 kts 257°
2026-05-05 17:56 35.02155 139.18351 24030 ft 390 kts 257°
2026-05-05 17:56 35.01608 139.15099 24396 ft 392 kts 257°
2026-05-05 17:56 35.01057 139.11843 24742 ft 393 kts 257°
2026-05-05 17:56 35.00504 139.08571 25088 ft 394 kts 257°
2026-05-05 17:57 34.99943 139.05265 25243 ft 400 kts 257°
2026-05-05 17:57 34.99377 139.01932 25569 ft 401 kts 257°
2026-05-05 17:57 34.98906 138.98584 26003 ft 401 kts 261°
2026-05-05 17:57 34.98637 138.95197 26405 ft 401 kts 263°
2026-05-05 17:58 34.98424 138.91846 26780 ft 401 kts 263°
2026-05-05 17:58 34.98237 138.88436 27052 ft 403 kts 264°
2026-05-05 17:58 34.98063 138.85027 27357 ft 404 kts 264°
2026-05-05 17:58 34.97893 138.81596 27670 ft 405 kts 264°
2026-05-05 17:59 34.97721 138.78172 28046 ft 404 kts 264°
2026-05-05 17:59 34.97545 138.74744 28386 ft 404 kts 264°
2026-05-05 17:59 34.97368 138.71355 28678 ft 405 kts 264°
2026-05-05 17:59 34.97185 138.67928 28965 ft 406 kts 264°
2026-05-05 18:00 34.97001 138.64490 29308 ft 405 kts 264°
2026-05-05 18:00 34.96816 138.61075 29765 ft 401 kts 264°
2026-05-05 18:00 34.96632 138.57689 30224 ft 398 kts 264°
2026-05-05 18:00 34.96510 138.55458 30476 ft 396 kts 263°
2026-05-05 18:01 34.96267 138.51031 30956 ft 393 kts 263°
2026-05-05 18:01 34.96082 138.47702 31194 ft 393 kts 263°
2026-05-05 18:01 34.95959 138.45486 31369 ft 393 kts 263°
2026-05-05 18:01 34.95774 138.42165 31716 ft 390 kts 263°
2026-05-05 18:02 34.95590 138.38873 32073 ft 387 kts 263°
2026-05-05 18:02 34.95406 138.35611 32425 ft 384 kts 262°
2026-05-05 18:02 34.95164 138.31327 32866 ft 381 kts 262°
2026-05-05 18:02 34.95042 138.29157 33083 ft 379 kts 262°
2026-05-05 18:03 34.94859 138.25955 33413 ft 377 kts 262°
2026-05-05 18:03 34.94676 138.22778 33730 ft 374 kts 262°
2026-05-05 18:03 34.94496 138.19656 33940 ft 374 kts 261°
2026-05-05 18:04 34.94127 138.13322 33980 ft 373 kts 261°
2026-05-05 18:04 34.93757 138.07025 33985 ft 372 kts 261°
2026-05-05 18:05 34.93385 138.00734 33980 ft 371 kts 262°
2026-05-05 18:05 34.93014 137.94489 33990 ft 371 kts 261°
2026-05-05 18:06 34.92636 137.88211 33993 ft 371 kts 261°
2026-05-05 18:06 34.92256 137.81928 33999 ft 371 kts 261°
2026-05-05 18:07 34.91875 137.75651 33999 ft 371 kts 262°
2026-05-05 18:07 34.91412 137.69433 33991 ft 369 kts 258°
2026-05-05 18:08 34.90116 137.63412 33987 ft 367 kts 250°
2026-05-05 18:08 34.88412 137.57549 33987 ft 366 kts 249°
2026-05-05 18:09 34.86642 137.51726 33980 ft 366 kts 249°
2026-05-05 18:09 34.84888 137.45945 33976 ft 366 kts 250°
2026-05-05 18:10 34.83197 137.40094 33976 ft 366 kts 250°
2026-05-05 18:10 34.81541 137.34235 33969 ft 366 kts 250°
2026-05-05 18:11 34.79874 137.28379 33969 ft 365 kts 250°
2026-05-05 18:11 34.78198 137.22540 33966 ft 365 kts 250°
2026-05-05 18:12 34.76525 137.16737 33970 ft 365 kts 250°
2026-05-05 18:12 34.74836 137.10884 33973 ft 365 kts 250°
2026-05-05 18:13 34.73162 137.05098 33971 ft 365 kts 250°
2026-05-05 18:13 34.71230 136.99368 33968 ft 365 kts 243°
2026-05-05 18:14 34.68318 136.94288 33969 ft 370 kts 232°
2026-05-05 18:14 34.64460 136.90130 33957 ft 376 kts 225°
2026-05-05 18:15 34.60293 136.86273 33965 ft 377 kts 224°
2026-05-05 18:15 34.56090 136.82454 33965 ft 376 kts 224°
2026-05-05 18:16 34.51937 136.78651 33970 ft 376 kts 224°
2026-05-05 18:16 34.47763 136.74806 33971 ft 376 kts 224°
2026-05-05 18:17 34.43604 136.70973 33957 ft 375 kts 224°
2026-05-05 18:17 34.39453 136.67160 33967 ft 375 kts 224°
2026-05-05 18:18 34.35301 136.63344 33977 ft 374 kts 224°
2026-05-05 18:18 34.31173 136.59558 33968 ft 374 kts 224°
2026-05-05 18:19 34.27032 136.55729 33968 ft 375 kts 225°
2026-05-05 18:19 34.22923 136.51862 33966 ft 374 kts 225°
2026-05-05 18:20 34.18815 136.47989 33968 ft 374 kts 225°
2026-05-05 18:20 34.14698 136.44122 33969 ft 374 kts 225°
2026-05-05 18:21 34.10581 136.40321 33969 ft 377 kts 222°
2026-05-05 18:21 34.06011 136.37067 33973 ft 383 kts 217°
2026-05-05 18:22 34.01292 136.34060 33967 ft 383 kts 216°
2026-05-05 18:22 33.96582 136.31119 33969 ft 383 kts 216°
2026-05-05 18:23 33.91850 136.28156 33964 ft 383 kts 216°
2026-05-05 18:23 33.87124 136.25185 33966 ft 383 kts 216°
2026-05-05 18:24 33.82427 136.22233 33969 ft 383 kts 216°
2026-05-05 18:24 33.77704 136.19267 33964 ft 383 kts 216°
2026-05-05 18:25 33.72976 136.16302 33959 ft 384 kts 216°
2026-05-05 18:25 33.68240 136.13336 33965 ft 386 kts 216°
2026-05-05 18:26 33.63469 136.10353 33962 ft 386 kts 216°
2026-05-05 18:26 33.58693 136.07372 33959 ft 387 kts 216°
2026-05-05 18:27 33.53945 136.04411 33950 ft 387 kts 216°
2026-05-05 18:27 33.49159 136.01429 33944 ft 387 kts 215°
2026-05-05 18:28 33.41977 135.96959 33945 ft 390 kts 214°
2026-05-05 18:28 33.37139 135.93959 33947 ft 390 kts 215°
2026-05-05 18:29 33.32318 135.90969 33941 ft 390 kts 215°
2026-05-05 18:29 33.27518 135.87994 33942 ft 390 kts 215°
2026-05-05 18:30 33.22687 135.85005 33929 ft 391 kts 214°
2026-05-05 18:30 33.17823 135.81994 33940 ft 395 kts 214°
2026-05-05 18:31 33.12937 135.78980 33938 ft 395 kts 214°
2026-05-05 18:31 33.08052 135.75972 33934 ft 395 kts 214°
2026-05-05 18:32 33.03203 135.72989 33932 ft 394 kts 214°
2026-05-05 18:32 32.98322 135.69988 33933 ft 394 kts 214°
2026-05-05 18:33 32.93439 135.66987 33927 ft 396 kts 214°
2026-05-05 18:33 32.88555 135.63991 33934 ft 396 kts 214°
2026-05-05 18:34 32.83644 135.60985 33915 ft 396 kts 214°
2026-05-05 18:34 32.78736 135.57983 33929 ft 396 kts 214°
2026-05-05 18:35 32.73861 135.55005 33929 ft 397 kts 214°
2026-05-05 18:35 32.68937 135.52000 33921 ft 398 kts 214°
2026-05-05 18:36 32.63995 135.48986 33923 ft 399 kts 214°
2026-05-05 18:36 32.59067 135.45987 33923 ft 400 kts 214°
2026-05-05 18:37 32.54112 135.42976 33921 ft 399 kts 214°
2026-05-05 18:37 32.49183 135.39983 33920 ft 399 kts 214°
2026-05-05 18:38 32.44222 135.36978 33893 ft 400 kts 213°
2026-05-05 18:38 32.39225 135.33948 33918 ft 407 kts 213°
2026-05-05 18:39 32.34167 135.30885 33918 ft 408 kts 213°
2026-05-05 18:39 32.29113 135.27834 33914 ft 408 kts 213°
2026-05-05 18:40 32.24055 135.24784 33914 ft 408 kts 213°
2026-05-05 18:40 32.19028 135.21754 33912 ft 408 kts 213°
2026-05-05 18:41 32.13959 135.18698 33913 ft 411 kts 213°
2026-05-05 18:41 32.09245 135.14991 33906 ft 404 kts 225°
2026-05-05 18:42 32.05489 135.10154 33906 ft 401 kts 233°
2026-05-05 18:42 32.02064 135.04947 33907 ft 401 kts 234°
2026-05-05 18:43 31.98687 134.99698 33911 ft 401 kts 234°
2026-05-05 18:43 31.95303 134.94480 33907 ft 399 kts 234°
2026-05-05 18:44 31.91939 134.89336 33903 ft 399 kts 233°
2026-05-05 18:44 31.88522 134.84128 33906 ft 404 kts 233°
2026-05-05 18:45 31.85077 134.78886 33907 ft 404 kts 233°
2026-05-05 18:45 31.81656 134.73685 33907 ft 404 kts 233°
2026-05-05 18:46 31.78213 134.68458 33904 ft 404 kts 233°
2026-05-05 18:46 31.74790 134.63268 33904 ft 404 kts 233°
2026-05-05 18:47 31.71343 134.58049 33901 ft 402 kts 233°
2026-05-05 18:47 31.67934 134.52895 33902 ft 402 kts 233°
2026-05-05 18:48 31.64498 134.47706 33999 ft 402 kts 233°
2026-05-05 18:48 31.62779 134.45113 34150 ft 403 kts 233°
2026-05-05 18:48 31.61052 134.42509 34162 ft 403 kts 233°
2026-05-05 18:49 31.57615 134.37332 34138 ft 400 kts 232°
2026-05-05 18:49 31.54203 134.32199 34160 ft 402 kts 232°
2026-05-05 18:50 31.50778 134.27054 34159 ft 403 kts 232°
2026-05-05 18:50 31.47318 134.21864 34171 ft 403 kts 232°
2026-05-05 18:51 31.44517 134.17667 34152 ft 402 kts 232°
2026-05-05 18:51 31.40431 134.11554 34156 ft 404 kts 232°
2026-05-05 18:52 31.37539 134.07233 34157 ft 404 kts 232°
2026-05-05 18:52 31.34064 134.02046 34167 ft 404 kts 232°
2026-05-05 18:53 31.30616 133.96907 34154 ft 404 kts 231°
2026-05-05 18:53 31.27138 133.91732 34154 ft 405 kts 231°
2026-05-05 18:54 31.23654 133.86553 34151 ft 405 kts 231°
2026-05-05 18:54 31.20169 133.81380 34148 ft 405 kts 231°
2026-05-05 18:55 31.16678 133.76204 34151 ft 406 kts 231°
2026-05-05 18:55 31.13176 133.71021 34151 ft 406 kts 231°
2026-05-05 18:56 31.09695 133.65874 34146 ft 406 kts 231°
2026-05-05 18:56 31.06199 133.60714 34144 ft 407 kts 231°
2026-05-05 18:57 31.02686 133.55537 34143 ft 406 kts 231°
2026-05-05 18:57 30.99176 133.50369 34140 ft 406 kts 231°
2026-05-05 18:58 30.95660 133.45187 34125 ft 407 kts 231°
2026-05-05 18:58 30.92146 133.40020 34136 ft 410 kts 231°
2026-05-05 18:59 30.88607 133.34823 34138 ft 409 kts 231°
2026-05-05 18:59 30.85066 133.29632 34135 ft 409 kts 231°
2026-05-05 19:00 30.81518 133.24441 34136 ft 411 kts 231°
2026-05-05 19:00 30.77959 133.19237 34136 ft 413 kts 231°
2026-05-05 19:01 30.74368 133.13991 34127 ft 413 kts 231°
2026-05-05 19:01 30.70803 133.08794 34109 ft 413 kts 231°
2026-05-05 19:02 30.67200 133.03546 34126 ft 416 kts 232°
2026-05-05 19:02 30.63579 132.98280 34124 ft 416 kts 231°
2026-05-05 19:03 30.59971 132.93039 34122 ft 414 kts 231°
2026-05-05 19:03 30.56373 132.87821 34121 ft 414 kts 231°
2026-05-05 19:04 30.52763 132.82592 34117 ft 414 kts 231°
2026-05-05 19:04 30.49181 132.77411 34121 ft 414 kts 231°
2026-05-05 19:05 30.45570 132.72193 34121 ft 414 kts 231°
2026-05-05 19:05 30.41952 132.66974 34118 ft 417 kts 232°
2026-05-05 19:06 30.38307 132.61721 34113 ft 418 kts 232°
2026-05-05 19:06 30.34659 132.56470 34114 ft 417 kts 231°
2026-05-05 19:07 30.31014 132.51232 34097 ft 417 kts 232°
2026-05-05 19:07 30.27384 132.46024 34108 ft 419 kts 232°
2026-05-05 19:08 30.23726 132.40779 34105 ft 419 kts 232°
2026-05-05 19:08 30.20073 132.35550 34103 ft 416 kts 231°
2026-05-05 19:09 30.16432 132.30345 34096 ft 416 kts 232°
2026-05-05 19:09 30.12776 132.25125 34099 ft 418 kts 232°
2026-05-05 19:10 30.09134 132.19931 34097 ft 418 kts 232°
2026-05-05 19:10 30.05487 132.14737 34095 ft 414 kts 232°
2026-05-05 19:11 30.01872 132.09596 34091 ft 414 kts 232°
2026-05-05 19:11 29.98240 132.04437 34091 ft 414 kts 232°
2026-05-05 19:12 29.94605 131.99281 34088 ft 414 kts 232°
2026-05-05 19:12 29.90994 131.94166 34089 ft 411 kts 232°
2026-05-05 19:13 29.87372 131.89041 34089 ft 413 kts 232°
2026-05-05 19:13 29.83741 131.83910 34086 ft 413 kts 232°
2026-05-05 19:14 29.80091 131.78782 34086 ft 413 kts 231°
2026-05-05 19:14 29.76373 131.73747 34065 ft 412 kts 231°
2026-05-05 19:15 29.72657 131.68765 34084 ft 413 kts 231°
2026-05-05 19:15 29.68916 131.63732 34084 ft 414 kts 231°
2026-05-05 19:16 29.65171 131.58682 34082 ft 414 kts 231°
2026-05-05 19:16 29.61458 131.53677 34079 ft 413 kts 231°
2026-05-05 19:17 29.57704 131.48622 34079 ft 413 kts 231°
2026-05-05 19:17 29.53996 131.43637 34085 ft 412 kts 231°
2026-05-05 19:18 29.50266 131.38629 34078 ft 412 kts 231°
2026-05-05 19:18 29.46530 131.33620 34089 ft 412 kts 231°
2026-05-05 19:19 29.42819 131.28651 34079 ft 412 kts 231°
2026-05-05 19:19 29.39085 131.23655 34084 ft 412 kts 231°
2026-05-05 19:20 29.35352 131.18666 34070 ft 412 kts 231°
2026-05-05 19:20 29.31610 131.13674 34070 ft 412 kts 231°
2026-05-05 19:21 29.27863 131.08678 34069 ft 415 kts 230°
2026-05-05 19:21 29.24090 131.03656 34068 ft 416 kts 230°
2026-05-05 19:22 29.20328 130.98655 34069 ft 417 kts 230°
2026-05-05 19:22 29.16546 130.93634 34080 ft 417 kts 230°
2026-05-05 19:23 29.12759 130.88610 34077 ft 417 kts 230°
2026-05-05 19:23 29.08961 130.83579 34073 ft 417 kts 230°
2026-05-05 19:24 29.05167 130.78561 34076 ft 417 kts 230°
2026-05-05 19:24 29.01377 130.73555 34073 ft 415 kts 231°
2026-05-05 19:25 28.97603 130.68574 34074 ft 414 kts 231°
2026-05-05 19:25 28.93855 130.63633 34074 ft 414 kts 231°
2026-05-05 19:26 28.90083 130.58666 34074 ft 414 kts 231°
2026-05-05 19:26 28.86304 130.53698 34069 ft 411 kts 231°
2026-05-05 19:27 28.82560 130.48782 34073 ft 409 kts 231°
2026-05-05 19:27 28.78843 130.43904 34075 ft 410 kts 231°
2026-05-05 19:28 28.75084 130.38978 34071 ft 412 kts 231°
2026-05-05 19:28 28.71346 130.34088 34068 ft 410 kts 231°
2026-05-05 19:29 28.67602 130.29195 34073 ft 409 kts 231°
2026-05-05 19:29 28.63862 130.24312 34079 ft 409 kts 231°
2026-05-05 19:30 28.60106 130.19412 34072 ft 412 kts 231°
2026-05-05 19:30 28.56351 130.14522 34060 ft 411 kts 231°
2026-05-05 19:31 28.52593 130.09634 34065 ft 410 kts 231°
2026-05-05 19:31 28.48837 130.04753 34057 ft 410 kts 231°
2026-05-05 19:32 28.45080 129.99876 34054 ft 410 kts 231°
2026-05-05 19:32 28.41310 129.94990 34046 ft 410 kts 231°
2026-05-05 19:33 28.37541 129.90109 34047 ft 410 kts 231°
2026-05-05 19:33 28.33802 129.85273 34047 ft 410 kts 231°
2026-05-05 19:34 28.30039 129.80412 34063 ft 410 kts 231°
2026-05-05 19:35 28.24363 129.73089 34054 ft 413 kts 231°
2026-05-05 19:35 28.20564 129.68196 34051 ft 413 kts 231°
2026-05-05 19:36 28.16781 129.63329 34054 ft 413 kts 231°
2026-05-05 19:36 28.12972 129.58435 34062 ft 413 kts 231°
2026-05-05 19:37 28.09161 129.53543 34062 ft 415 kts 231°
2026-05-05 19:37 28.05353 129.48660 34055 ft 416 kts 231°
2026-05-05 19:38 28.01517 129.43748 34053 ft 416 kts 231°
2026-05-05 19:38 27.97677 129.38837 34054 ft 416 kts 231°
2026-05-05 19:39 27.94487 129.34760 34059 ft 416 kts 230°
2026-05-05 19:39 27.90655 129.29870 34047 ft 414 kts 230°
2026-05-05 19:40 27.86852 129.25021 34058 ft 414 kts 230°
2026-05-05 19:40 27.83026 129.20149 34045 ft 414 kts 230°
2026-05-05 19:41 27.79200 129.15283 34024 ft 414 kts 230°
2026-05-05 19:41 27.75365 129.10410 34043 ft 415 kts 230°
2026-05-05 19:42 27.71542 129.05562 34040 ft 412 kts 230°
2026-05-05 19:42 27.67731 129.00736 34039 ft 411 kts 230°
2026-05-05 19:43 27.63948 128.95949 34045 ft 412 kts 230°
2026-05-05 19:43 27.60134 128.91129 34045 ft 411 kts 230°
2026-05-05 19:44 27.56323 128.86318 34043 ft 410 kts 230°
2026-05-05 19:44 27.52524 128.81528 34048 ft 409 kts 230°
2026-05-05 19:45 27.48732 128.76752 34052 ft 409 kts 230°
2026-05-05 19:45 27.44935 128.71974 34042 ft 410 kts 230°
2026-05-05 19:46 27.41640 128.66746 34031 ft 409 kts 238°
2026-05-05 19:46 27.38719 128.61296 34024 ft 410 kts 240°
2026-05-05 19:47 27.35829 128.55761 34027 ft 410 kts 240°
2026-05-05 19:47 27.32938 128.50236 34020 ft 410 kts 240°
2026-05-05 19:48 27.30032 128.44716 34025 ft 410 kts 240°
2026-05-05 19:48 27.27123 128.39208 34022 ft 409 kts 240°
2026-05-05 19:49 27.24213 128.33708 33982 ft 408 kts 240°
2026-05-05 19:49 27.22769 128.30982 33392 ft 407 kts 240°
2026-05-05 19:49 27.21310 128.28228 32484 ft 413 kts 240°
2026-05-05 19:49 27.19830 128.25435 31601 ft 419 kts 240°
2026-05-05 19:50 27.18329 128.22605 30749 ft 425 kts 240°
2026-05-05 19:50 27.16808 128.19737 29877 ft 430 kts 240°
2026-05-05 19:50 27.15276 128.16851 28986 ft 433 kts 240°
2026-05-05 19:50 27.13725 128.13932 28141 ft 436 kts 240°
2026-05-05 19:51 27.12174 128.11015 27388 ft 436 kts 239°
2026-05-05 19:51 27.10625 128.08103 26613 ft 430 kts 239°
2026-05-05 19:51 27.09130 128.05298 25325 ft 419 kts 239°
2026-05-05 19:51 27.07645 128.02511 24245 ft 409 kts 239°
2026-05-05 19:52 27.06235 127.99867 23867 ft 382 kts 239°
2026-05-05 19:52 27.04868 127.97305 23309 ft 388 kts 239°
2026-05-05 19:52 27.03328 127.94771 22702 ft 395 kts 230°
2026-05-05 19:52 27.01335 127.92665 22121 ft 395 kts 217°
2026-05-05 19:53 26.98914 127.91199 21556 ft 398 kts 203°
2026-05-05 19:53 26.96201 127.90488 20977 ft 404 kts 189°
2026-05-05 19:53 26.93370 127.90420 20338 ft 408 kts 182°
2026-05-05 19:53 26.90532 127.90524 19775 ft 407 kts 182°
2026-05-05 19:54 26.87735 127.90633 19216 ft 406 kts 182°
2026-05-05 19:54 26.84904 127.90735 18668 ft 404 kts 182°
2026-05-05 19:54 26.82101 127.90829 18162 ft 401 kts 182°
2026-05-05 19:54 26.79321 127.90918 17613 ft 398 kts 182°
2026-05-05 19:55 26.76565 127.91004 17107 ft 393 kts 182°
2026-05-05 19:55 26.73873 127.91086 16601 ft 389 kts 182°
2026-05-05 19:55 26.71176 127.91167 16054 ft 386 kts 182°
2026-05-05 19:55 26.68499 127.91247 15538 ft 382 kts 182°
2026-05-05 19:56 26.65846 127.91327 15062 ft 379 kts 182°
2026-05-05 19:56 26.63232 127.91405 14473 ft 371 kts 182°
2026-05-05 19:56 26.60691 127.91482 13346 ft 360 kts 182°
2026-05-05 19:56 26.58238 127.91557 12610 ft 341 kts 182°
2026-05-05 19:57 26.55939 127.91629 12183 ft 327 kts 182°
2026-05-05 19:57 26.53646 127.91692 11803 ft 323 kts 182°
2026-05-05 19:57 26.51500 127.91759 11695 ft 293 kts 182°
2026-05-05 19:57 26.49570 127.91820 11600 ft 271 kts 182°
2026-05-05 19:58 26.47689 127.91873 11503 ft 273 kts 182°
2026-05-05 19:58 26.45784 127.91924 11380 ft 273 kts 182°
2026-05-05 19:58 26.43879 127.91978 11261 ft 273 kts 182°
2026-05-05 19:58 26.41983 127.92033 11144 ft 273 kts 182°
2026-05-05 19:59 26.40089 127.92031 11033 ft 274 kts 187°
2026-05-05 19:59 26.38188 127.91546 10984 ft 285 kts 202°
2026-05-05 19:59 26.36371 127.90675 10854 ft 282 kts 205°
2026-05-05 19:59 26.34585 127.89749 10454 ft 284 kts 205°
2026-05-05 20:00 26.32801 127.88821 10091 ft 285 kts 205°
2026-05-05 20:00 26.31047 127.87916 9699 ft 277 kts 205°
2026-05-05 20:00 26.29324 127.87030 9145 ft 268 kts 205°
2026-05-05 20:00 26.28175 127.86441 8773 ft 262 kts 204°
2026-05-05 20:01 26.26531 127.85599 8343 ft 262 kts 204°
2026-05-05 20:01 26.24861 127.84746 8100 ft 264 kts 204°
2026-05-05 20:01 26.23197 127.83896 7834 ft 263 kts 204°
2026-05-05 20:01 26.21557 127.83059 7500 ft 263 kts 204°
2026-05-05 20:02 26.19895 127.82212 7191 ft 263 kts 204°
2026-05-05 20:02 26.18231 127.81363 6874 ft 263 kts 204°
2026-05-05 20:02 26.16571 127.80517 6489 ft 260 kts 203°
2026-05-05 20:02 26.14927 127.79679 5927 ft 260 kts 203°
2026-05-05 20:03 26.13273 127.78837 5507 ft 262 kts 202°
2026-05-05 20:03 26.11608 127.77989 5127 ft 263 kts 202°
2026-05-05 20:03 26.09967 127.77155 4799 ft 260 kts 202°
2026-05-05 20:03 26.08333 127.76326 4572 ft 254 kts 202°
2026-05-05 20:04 26.06761 127.75518 4509 ft 245 kts 202°
2026-05-05 20:04 26.05238 127.74735 4345 ft 238 kts 201°
2026-05-05 20:04 26.03752 127.73959 4139 ft 234 kts 204°
2026-05-05 20:04 26.02372 127.73029 3948 ft 231 kts 214°
2026-05-05 20:05 26.01237 127.71794 3800 ft 227 kts 231°
2026-05-05 20:05 26.00640 127.70184 3648 ft 229 kts 261°
2026-05-05 20:05 26.00939 127.68488 3488 ft 228 kts 300°
2026-05-05 20:05 26.01895 127.67163 3516 ft 212 kts 313°
2026-05-05 20:06 26.02895 127.66013 3273 ft 205 kts 314°
2026-05-05 20:06 26.03910 127.64891 2827 ft 206 kts 318°
2026-05-05 20:06 26.05165 127.64138 2532 ft 205 kts 343°
2026-05-05 20:06 26.06545 127.63801 2274 ft 201 kts
2026-05-05 20:07 26.07914 127.63854 2011 ft 198 kts
2026-05-05 20:07 26.09294 127.63766 1746 ft 198 kts 358°
2026-05-05 20:07 26.10659 127.63681 1482 ft 196 kts
2026-05-05 20:07 26.12019 127.63635 1231 ft 195 kts
2026-05-05 20:08 26.13361 127.63566 972 ft 188 kts
2026-05-05 20:08 26.14623 127.63508 724 ft 174 kts
2026-05-05 20:08 26.15777 127.63460 486 ft 157 kts 359°
2026-05-05 20:08 26.16827 127.63412 216 ft 144 kts 357°
2026-05-05 20:09 26.17797 127.63360 46 ft 135 kts 358°
2026-05-05 20:09 26.18650 127.63319 20 ft 110 kts 358°
2026-05-05 20:09 26.19313 127.63287 23 ft 81 kts 358°
2026-05-05 20:09 26.19642 127.63298 24 ft 20 kts 17°
2026-05-05 20:10 26.19767 127.63351 23 ft 18 kts 29°
2026-05-05 20:10 26.19867 127.63412 23 ft 15 kts 28°
2026-05-05 20:10 26.19958 127.63452 23 ft 11 kts
2026-05-05 20:10 26.19985 127.63449 21 ft 0 kts 353°
2026-05-05 20:11 26.19986 127.63449 21 ft 1 kts 353°
2026-05-05 20:11 26.20025 127.63444 16 ft 9 kts 357°
2026-05-05 20:12 26.20107 127.63440 21 ft 12 kts 358°
2026-05-05 20:12 26.20187 127.63437 23 ft 11 kts 358°
2026-05-05 20:12 26.20208 127.63457 22 ft 2 kts 74°
2026-05-05 20:12 26.20215 127.63505 21 ft 19 kts 83°
2026-05-05 20:13 26.20223 127.63711 24 ft 33 kts 88°
2026-05-05 20:13 26.20237 127.64012 21 ft 34 kts 86°
2026-05-05 20:13 26.20239 127.64055 21 ft 0 kts 86°
2026-05-05 20:14 26.20239 127.64094 21 ft 7 kts 89°
2026-05-05 20:14 26.20241 127.64172 22 ft 11 kts 86°
2026-05-05 20:14 26.20245 127.64250 23 ft 9 kts 87°
2026-05-05 20:14 26.20260 127.64312 22 ft 4 kts 45°
2026-05-05 20:15 26.20322 127.64319 21 ft 12 kts 357°
2026-05-05 20:15 26.20398 127.64314 23 ft 10 kts 356°
2026-05-05 20:15 26.20460 127.64310 23 ft 8 kts 356°
2026-05-05 20:15 26.20506 127.64307 22 ft 5 kts
2026-05-05 20:16 26.20536 127.64308 21 ft 3 kts
2026-05-05 20:16 26.20554 127.64309 21 ft 2 kts
2026-05-05 20:16 26.20596 127.64338 25 ft 13 kts 51°
2026-05-05 20:16 26.20616 127.64444 20 ft 11 kts 86°
2026-05-05 20:17 26.20618 127.64500 24 ft 6 kts 88°
2026-05-05 20:17 26.20622 127.64569 27 ft 9 kts 86°
2026-05-05 20:17 26.20625 127.64637 20 ft 9 kts 86°
2026-05-05 20:17 26.20631 127.64712 19 ft 9 kts 77°
2026-05-05 20:18 26.20643 127.64747 23 ft 2 kts 68°
2026-05-05 20:18 26.20652 127.64771 22 ft 3 kts 62°
2026-05-05 20:18 26.20660 127.64779 22 ft 1 kts 48°
2026-05-05 20:18 26.20676 127.64799 24 ft 8 kts 48°
2026-05-05 20:19 26.20708 127.64837 27 ft 0 kts 47°
2026-05-05 20:19 26.20710 127.64840 28 ft 3 kts 46°
2026-05-05 20:19 26.20717 127.64848 29 ft 0 kts 47°
2026-05-05 20:19 26.20719 127.64851 29 ft 0 kts 47°
2026-05-05 20:20 26.20720 127.64851 29 ft 0 kts 47°